Location: Colonie
(42.7179°N, 73.8335°W)
Time: 04:47:33
(UTC+00:00)

Atlas Centaur 2 - Pass Details

Date: 29 October 2020
Orbit: 459 x 1309 km, 30.4° (Epoch: 29 November)

Event Time Altitude Azimuth Distance (km) Brightness Sun altitude
Rises 22:19:05 0° 237° (WSW) 3,991 7.3 -5.8°
Reaches altitude 10° 22:22:07 10° 227° (SW) 3,130 6.2 -6.3°
Maximum altitude 22:28:57 32° 169° (S) 2,068 4.2 -7.5°
Drops below altitude 10° 22:36:11 10° 111° (ESE) 3,318 4.8 -8.8°
Enters shadow 22:37:31 - 107° (ESE) 3,686 5.0 -9.1°
